LiveATC.Net - Listen to live air traffic control over the Internet!


ICAO: URKK  IATA: KRR   Airport: Pashkovskiy General Airport
City: Krasnodar
Country: Russia   Continent: Europe
URKK METAR Weather: URKK 260300Z 07005MPS CAVOK 22/14 Q1014 R05C/CLRD60 NOSIG RMK QFE757
URKK Flight Activity (FlightAware)
URKK Gnd/Twr/App
Feed Status: UP   Listeners: 1
Listen right in your browser - requires Flash (in browser, requires Flash)
Click here to listen with your own player (launches your MP3 player)
URKK Gnd/Twr/App Audio Archives
FacilityFrequency
Krasnodar Approach129.600
Krasnodar Ground119.000
Krasnodar Radar121.300
Krasnodar Tower118.200


NOTICE

Unauthorized use prohibited. See LiveATC.net Terms of Service


Find LiveATC Audio Streams


Airport/ARTCC Code

Frequency
(e.g., 124.400, 128.75)
Site-wide search

Browse LiveATC Feeds
LiveATC Coverage Map
Top 50 LiveATC Feeds
Bad Weather Areas

LiveATC FAQ
Offer a LiveATC Feed
Contact LiveATC.net
Press Inquiries

LiveATC on iPhone
LiveATC on Android

Windows Phone
Windows 8/10

LiveATC Mobile
(Mobile browser)

ATC Audio Archives
Interesting Recordings

LiveATC Forums


Home Page
About LiveATC.net
Make a Donation
LiveATC Store

Terms of Use
Privacy Policy

Canadian Air Freqs

AIRMETs/SIGMETs

FAA Airport Status
Nat'l Airspace Status
Arrival Demand Charts


Server Software By:
Icecast.org
Liquidsoap